{"data":{"norad_id":58868,"intl_designator":"2024-019R","name":"STARLINK-31196","alt_names":[],"object_type":"PAYLOAD","status":"ACTIVE","operator":null,"country":"US","launch_date":"2024-01-29","launch_site_code":"AFETR","launch_vehicle":null,"mission":null,"orbit_class":"UNKNOWN","rcs_meters":null,"size_class":null,"mass_kg":null,"dimensions":null,"purposes":["comms"],"wikipedia_slug":null,"has_3d_model":false,"image_url":null,"decayed_at":null,"tle_current":{"epoch":"2026-05-24T13:43:22.103040Z","epoch_age_seconds":115283,"freshness":"FRESH","line1":"1 58868U 24019R   26144.57178360  .00000710  00000+0  35337-4 0  9997","line2":"2 58868  43.0017 180.7169 0001617 265.8072  94.2595 15.27580854130664","mean_motion":15.27580854,"eccentricity":0.0001617,"inclination_deg":43.0017,"raan_deg":180.7169,"arg_perigee_deg":265.8072,"mean_anomaly_deg":94.2595,"bstar":3.5337e-5,"rev_number":13066,"period_min":94.26669601346,"perigee_km":481.93708547939,"apogee_km":484.15599223585,"semimajor_km":6861.1835388576,"source":"CELESTRAK","updated_at":"2026-05-25T13:38:18.760431Z"}}}